| time (UTC) | temp F | wind direction | speed MPH | gust MPH | rain 1hr in | rain 24hr in | rain mn in | humidity % | barometer mb |
| 20260505123518 | 59 | 0 | 0.0 | 0.0 | 0.00 | 0.00 | 0.00 | ||
| 20260505120517 | 59 | 0 | 0.0 | 0.0 | 0.00 | 0.00 | 0.00 | ||
| 20260505113517 | 61 | 0 | 0.0 | 0.0 | 0.00 | 0.00 | 0.00 | ||
| 20260505110516 | 62 | 0 | 0.0 | 0.0 | 0.00 | 0.00 | 0.00 | ||
| 20260505100516 | 63 | 0 | 0.0 | 0.0 | 0.00 | 0.00 | 0.00 | ||
| 20260505093515 | 64 | 0 | 0.0 | 0.0 | 0.00 | 0.00 | 0.00 | ||
| 20260505090618 | 65 | 0 | 0.0 | 0.0 | 0.00 | 0.00 | 0.00 | ||
| 20260505090515 | 65 | 0 | 0.0 | 0.0 | 0.00 | 0.00 | 0.00 | ||
| 20260505083514 | 66 | 0 | 0.0 | 0.0 | 0.00 | 0.00 | 0.00 | ||
| 20260505080514 | 66 | 0 | 0.0 | 0.0 | 0.00 | 0.00 | 0.00 | ||
| 20260505073514 | 66 | 0 | 0.0 | 0.0 | 0.00 | 0.00 | 0.00 | ||
| 20260505070513 | 68 | 0 | 0.0 | 0.0 | 0.00 | 0.00 | 0.00 | ||
| 20260505063513 | 70 | 0 | 0.0 | 0.0 | 0.00 | 0.00 | 0.00 | ||
| 20260505060512 | 71 | 0 | 0.0 | 0.0 | 0.00 | 0.00 | 0.00 | ||
| 20260505053512 | 74 | 0 | 0.0 | 0.0 | 0.00 | 0.00 | 0.00 | ||
| 20260505050512 | 75 | 0 | 0.0 | 0.0 | 0.00 | 0.00 | 0.00 | ||
| 20260505040511 | 79 | 0 | 0.0 | 0.0 | 0.00 | 0.00 | 0.00 | ||
| 20260505033510 | 79 | 0 | 0.0 | 0.0 | 0.00 | 0.00 | 0.00 | ||
| 20260505030510 | 82 | 0 | 0.0 | 0.0 | 0.00 | 0.00 | 0.00 | ||
| 20260505023510 | 86 | 0 | 0.0 | 0.0 | 0.00 | 0.00 | 0.00 | ||
| 20260505020509 | 87 | 281 | 0.0 | 2.0 | 0.00 | 0.00 | 0.00 | ||
| 20260505013509 | 88 | 0 | 0.0 | 0.0 | 0.00 | 0.00 | 0.00 | ||
| 20260505010508 | 89 | 0 | 0.0 | 0.0 | 0.00 | 0.00 | 0.00 | ||
| 20260505003508 | 90 | 27 | 2.0 | 5.0 | 0.00 | 0.00 | 0.00 | ||
| 20260505000508 | 90 | 283 | 1.0 | 5.0 | 0.00 | 0.00 | 0.00 | ||
| 20260504233507 | 91 | 349 | 3.0 | 8.0 | 0.00 | 0.00 | 0.00 | ||
| 20260504230507 | 94 | 301 | 1.0 | 5.0 | 0.00 | 0.00 | 0.00 | ||
| 20260504223506 | 95 | 273 | 1.0 | 6.0 | 0.00 | 0.00 | 0.00 | ||
| 20260504220506 | 95 | 276 | 1.0 | 7.0 | 0.00 | 0.00 | 0.00 | ||
| 20260504213506 | 96 | 339 | 4.0 | 8.0 | 0.00 | 0.00 | 0.00 | ||
| 20260504210506 | 94 | 349 | 2.0 | 6.0 | 0.00 | 0.00 | 0.00 | ||
| 20260504203505 | 93 | 309 | 3.0 | 7.0 | 0.00 | 0.00 | 0.00 | ||
| 20260504200504 | 93 | 17 | 1.0 | 4.0 | 0.00 | 0.00 | 0.00 | ||
| 20260504193504 | 91 | 8 | 3.0 | 10.0 | 0.00 | 0.00 | 0.00 | ||
| 20260504190504 | 90 | 287 | 1.0 | 6.0 | 0.00 | 0.00 | 0.00 | ||
| 20260504183503 | 87 | 263 | 3.0 | 6.0 | 0.00 | 0.00 | 0.00 | ||
| 20260504180504 | 83 | 287 | 3.0 | 6.0 | 0.00 | 0.00 | 0.00 | ||
| 20260504173503 | 81 | 276 | 3.0 | 9.0 | 0.00 | 0.00 | 0.00 | ||
| 20260504170502 | 78 | 297 | 0.0 | 4.0 | 0.00 | 0.00 | 0.00 | ||
| 20260504150501 | 62 | 0 | 0.0 | 0.0 | 0.00 | 0.00 | 0.00 | ||
| 20260504140500 | 56 | 0 | 0.0 | 0.0 | 0.00 | 0.00 | 0.00 |